EN

Hourly Weather Abaytikau

Today, 13 June, Sunday

Time Temperature Precipitation Wind Pressure Humidity
00:00 +8°C° 0.5 mm 2 mps 577 mmHg 91%
01:00 +8°C° 0.4 mm 2 mps 577 mmHg 90%
02:00 +7°C° 0.4 mm 2 mps 577 mmHg 90%
03:00 +7°C° 0.4 mm 2 mps 577 mmHg 89%
04:00 +9°C° 0.2 mm 1 mps 577 mmHg 88%
05:00 +9°C° 0.2 mm 1 mps 577 mmHg 87%
06:00 +10°C° 0.2 mm 1 mps 577 mmHg 86%
07:00 +10°C° 0.8 mm 1 mps 577 mmHg 87%
08:00 +10°C° 0.8 mm 1 mps 577 mmHg 89%
09:00 +10°C° 0.8 mm 1 mps 577 mmHg 91%
10:00 +10°C° 0.8 mm 1 mps 577 mmHg 89%
11:00 +11°C° 0.8 mm 1 mps 577 mmHg 86%
12:00 +12°C° 0.8 mm 2 mps 578 mmHg 84%
13:00 +12°C° 1.2 mm 2 mps 578 mmHg 85%
14:00 +12°C° 1.2 mm 2 mps 578 mmHg 85%
15:00 +12°C° 1.2 mm 2 mps 578 mmHg 86%
16:00 +11°C° 0.6 mm 1 mps 578 mmHg 87%
17:00 +11°C° 0.6 mm 1 mps 577 mmHg 87%
18:00 +10°C° 0.6 mm 1 mps 577 mmHg 88%
19:00 +10°C° 0.2 mm 1 mps 577 mmHg 90%
20:00 +8°C° 0.2 mm 0 mps 577 mmHg 91%
21:00 +7°C° 0.2 mm 0 mps 577 mmHg 93%
22:00 +6°C° 0 mm 0 mps 576 mmHg 92%
23:00 +7°C° 0 mm 1 mps 576 mmHg 91%

Tomorrow, 14 June, Monday

Time Temperature Precipitation Wind Pressure Humidity
00:00 +6°C° 0 mm 1 mps 576 mmHg 91%
01:00 +6°C° 0 mm 1 mps 575 mmHg 90%
02:00 +6°C° 0 mm 1 mps 575 mmHg 89%
03:00 +5°C° 0 mm 2 mps 575 mmHg 88%
04:00 +7°C° 0 mm 1 mps 576 mmHg 85%
05:00 +8°C° 0 mm 1 mps 577 mmHg 82%
06:00 +9°C° 0 mm 1 mps 577 mmHg 79%
07:00 +11°C° 0 mm 1 mps 578 mmHg 71%
08:00 +13°C° 0 mm 2 mps 578 mmHg 62%
09:00 +14°C° 0 mm 2 mps 579 mmHg 54%
10:00 +15°C° 0 mm 2 mps 579 mmHg 51%
11:00 +16°C° 0 mm 3 mps 580 mmHg 49%
12:00 +17°C° 0 mm 3 mps 580 mmHg 46%
13:00 +17°C° 0 mm 3 mps 580 mmHg 47%
14:00 +17°C° 0 mm 3 mps 580 mmHg 47%
15:00 +17°C° 0 mm 2 mps 580 mmHg 47%
16:00 +17°C° 0 mm 2 mps 580 mmHg 52%
17:00 +16°C° 0 mm 2 mps 580 mmHg 56%
18:00 +15°C° 0 mm 2 mps 580 mmHg 60%
19:00 +14°C° 0 mm 2 mps 579 mmHg 65%
20:00 +12°C° 0 mm 2 mps 578 mmHg 70%
21:00 +9°C° 0 mm 2 mps 578 mmHg 75%
22:00 +9°C° 0.2 mm 3 mps 578 mmHg 77%
23:00 +9°C° 0.2 mm 3 mps 578 mmHg 78%

Day after tomorrow, 15 June, Tuesday

Time Temperature Precipitation Wind Pressure Humidity
00:00 +9°C° 0.2 mm 3 mps 577 mmHg 80%
01:00 +8°C° 0.2 mm 3 mps 577 mmHg 81%
02:00 +8°C° 0.2 mm 3 mps 577 mmHg 82%
03:00 +8°C° 0.2 mm 3 mps 577 mmHg 83%
04:00 +9°C° 0 mm 3 mps 577 mmHg 81%
05:00 +10°C° 0 mm 3 mps 577 mmHg 79%
06:00 +11°C° 0 mm 3 mps 578 mmHg 78%
07:00 +11°C° 0.4 mm 3 mps 578 mmHg 76%
08:00 +12°C° 0.4 mm 3 mps 578 mmHg 75%
09:00 +12°C° 0.4 mm 3 mps 579 mmHg 73%
10:00 +14°C° 0.1 mm 3 mps 579 mmHg 66%
11:00 +16°C° 0.1 mm 3 mps 580 mmHg 58%
12:00 +17°C° 0.1 mm 3 mps 580 mmHg 50%
13:00 +18°C° 0.1 mm 3 mps 580 mmHg 49%
14:00 +18°C° 0.1 mm 3 mps 580 mmHg 49%
15:00 +18°C° 0.1 mm 2 mps 580 mmHg 48%
16:00 +17°C° 0.1 mm 2 mps 580 mmHg 52%
17:00 +17°C° 0.1 mm 2 mps 580 mmHg 56%
18:00 +18°C° 0.1 mm 1 mps 580 mmHg 59%
19:00 +15°C° 0 mm 1 mps 579 mmHg 64%
20:00 +13°C° 0 mm 2 mps 579 mmHg 69%
21:00 +10°C° 0 mm 2 mps 578 mmHg 74%
22:00 +10°C° 0 mm 2 mps 578 mmHg 72%
23:00 +10°C° 0 mm 2 mps 578 mmHg 70%

16 June, Wednesday

Time Temperature Precipitation Wind Pressure Humidity
00:00 +9°C° 0 mm 2 mps 577 mmHg 68%
01:00 +10°C° 0 mm 2 mps 577 mmHg 69%
02:00 +10°C° 0 mm 3 mps 577 mmHg 69%
03:00 +10°C° 0 mm 3 mps 577 mmHg 69%
04:00 +11°C° 0 mm 3 mps 578 mmHg 69%
05:00 +12°C° 0 mm 3 mps 578 mmHg 70%
06:00 +14°C° 0 mm 2 mps 579 mmHg 70%
07:00 +14°C° 0 mm 3 mps 579 mmHg 65%
08:00 +17°C° 0 mm 3 mps 580 mmHg 60%
09:00 +18°C° 0 mm 3 mps 580 mmHg 55%
10:00 +19°C° 0.1 mm 3 mps 581 mmHg 54%
11:00 +19°C° 0.1 mm 3 mps 581 mmHg 54%
12:00 +20°C° 0.1 mm 3 mps 581 mmHg 54%
13:00 +20°C° 0.3 mm 3 mps 581 mmHg 55%
14:00 +20°C° 0.3 mm 3 mps 581 mmHg 56%
15:00 +20°C° 0.3 mm 2 mps 581 mmHg 58%
16:00 +19°C° 0.3 mm 2 mps 581 mmHg 62%
17:00 +18°C° 0.3 mm 2 mps 581 mmHg 67%
18:00 +17°C° 0.3 mm 2 mps 581 mmHg 72%
19:00 +16°C° 0.3 mm 2 mps 580 mmHg 75%
20:00 +14°C° 0.3 mm 2 mps 580 mmHg 79%
21:00 +12°C° 0.3 mm 2 mps 579 mmHg 82%
22:00 +12°C° 0 mm 2 mps 579 mmHg 81%
23:00 +12°C° 0 mm 2 mps 579 mmHg 81%

17 June, Thursday

Time Temperature Precipitation Wind Pressure Humidity
00:00 +11°C° 0 mm 3 mps 579 mmHg 80%
01:00 +11°C° 0 mm 3 mps 579 mmHg 79%
02:00 +10°C° 0 mm 3 mps 578 mmHg 78%
03:00 +10°C° 0 mm 3 mps 578 mmHg 78%
04:00 +11°C° 0 mm 3 mps 578 mmHg 77%
05:00 +12°C° 0 mm 3 mps 579 mmHg 76%
06:00 +13°C° 0 mm 3 mps 579 mmHg 76%
07:00 +14°C° 0 mm 3 mps 579 mmHg 66%
08:00 +17°C° 0 mm 3 mps 580 mmHg 55%
09:00 +18°C° 0 mm 3 mps 580 mmHg 45%
10:00 +19°C° 0 mm 4 mps 580 mmHg 47%
11:00 +19°C° 0 mm 4 mps 581 mmHg 49%
12:00 +19°C° 0 mm 4 mps 581 mmHg 50%
13:00 +18°C° 0.1 mm 4 mps 580 mmHg 56%
14:00 +17°C° 0.1 mm 3 mps 580 mmHg 62%
15:00 +16°C° 0.1 mm 3 mps 580 mmHg 68%
16:00 +16°C° 0.4 mm 3 mps 580 mmHg 72%
17:00 +15°C° 0.4 mm 2 mps 580 mmHg 76%
18:00 +14°C° 0.4 mm 2 mps 580 mmHg 80%
19:00 +13°C° 0.2 mm 2 mps 580 mmHg 80%
20:00 +12°C° 0.2 mm 2 mps 579 mmHg 79%
21:00 +10°C° 0.2 mm 2 mps 579 mmHg 79%
22:00 +11°C° 0 mm 1 mps 579 mmHg 78%
23:00 +10°C° 0 mm 1 mps 579 mmHg 78%

18 June, Friday

Time Temperature Precipitation Wind Pressure Humidity
00:00 +10°C° 0 mm 1 mps 578 mmHg 77%
01:00 +9°C° 0 mm 1 mps 578 mmHg 79%
02:00 +9°C° 0 mm 1 mps 578 mmHg 80%
03:00 +9°C° 0 mm 1 mps 578 mmHg 82%
04:00 +10°C° 0 mm 1 mps 579 mmHg 80%
05:00 +11°C° 0 mm 1 mps 579 mmHg 78%
06:00 +12°C° 0 mm 1 mps 580 mmHg 76%
07:00 +13°C° 0 mm 1 mps 580 mmHg 68%
08:00 +15°C° 0 mm 1 mps 581 mmHg 59%
09:00 +16°C° 0 mm 1 mps 581 mmHg 51%
10:00 +18°C° 0 mm 1 mps 581 mmHg 50%
11:00 +18°C° 0 mm 2 mps 582 mmHg 49%
12:00 +18°C° 0 mm 2 mps 582 mmHg 47%
13:00 +18°C° 0 mm 2 mps 582 mmHg 50%
14:00 +18°C° 0 mm 2 mps 582 mmHg 53%
15:00 +18°C° 0 mm 2 mps 582 mmHg 55%
16:00 +17°C° 0 mm 2 mps 582 mmHg 59%
17:00 +16°C° 0 mm 1 mps 582 mmHg 63%
18:00 +16°C° 0 mm 1 mps 581 mmHg 67%
19:00 +14°C° 0 mm 1 mps 581 mmHg 69%
20:00 +13°C° 0 mm 1 mps 581 mmHg 70%
21:00 +10°C° 0 mm 2 mps 580 mmHg 72%
22:00 +10°C° 0 mm 2 mps 580 mmHg 68%
23:00 +10°C° 0 mm 2 mps 580 mmHg 65%
Show more